Theta_e
308 308 308 308 308 308 308 308 304 303 303 303 304 305 306 305 302 311 314 311 310 305 305 311 315 321 323 327 328 328 330 329 326 325 323 323 323 325 327 328 329 332 335 336 339
307 307 308 308 308 308 308 308 305 305 306 306 306 305 305 305 311 312 310 304 306 305 314 313 317 318 325 327 328 329 331 330 327 327 325 323 324 323 326 328 331 333 334 333 338
307 307 307 307 308 308 308 308 306 307 307 308 307 305 306 308 315 317 307 308 306 307 312 312 315 317 322 325 329 329 331 330 329 328 327 325 325 324 324 327 331 333 334 334 334
306 307 307 307 307 305 305 306 307 307 307 307 306 305 307 313 313 318 307 308 308 310 310 314 316 317 317 322 325 329 330 330 330 329 329 327 326 326 325 325 328 332 334 333 333
304 305 305 304 303 302 304 305 306 307 306 307 305 307 313 316 310 307 308 311 312 311 310 312 316 317 318 319 323 325 326 328 329 329 329 329 328 329 328 327 326 326 330 331 332
303 303 302 301 301 301 303 305 306 306 306 306 306 308 316 316 309 310 311 311 312 312 312 312 312 315 318 318 320 322 325 326 327 328 329 329 329 329 329 329 329 327 327 329 331
300 299 301 301 301 301 303 305 305 305 306 306 307 312 315 312 310 311 312 312 312 312 313 312 312 312 315 318 318 319 320 321 324 326 328 328 329 330 330 329 330 331 330 331 332
297 297 299 301 302 301 304 305 305 305 306 307 307 315 316 309 310 311 310 311 311 311 312 311 312 313 312 313 314 316 319 320 322 323 325 326 329 328 328 330 331 331 331 331 332
303 301 301 300 302 301 305 306 306 307 307 308 315 315 314 310 310 309 309 311 311 311 311 311 312 313 313 311 311 313 316 320 320 321 323 324 328 328 328 329 330 331 331 332 331
305 303 302 304 303 301 306 309 310 311 314 314 313 316 313 310 309 308 310 310 311 311 311 312 313 314 313 312 311 312 313 315 318 320 321 322 325 326 327 328 329 331 331 331 331
305 304 306 306 304 302 308 313 316 317 313 312 311 310 309 309 308 309 310 310 312 312 313 313 312 314 314 314 313 313 312 313 316 318 320 321 323 324 326 326 327 329 330 331 331
306 304 305 305 302 304 309 313 311 311 313 312 311 310 309 309 310 310 310 312 312 313 313 313 313 312 313 313 312 312 313 314 314 315 319 322 322 323 325 326 326 327 329 330 331
303 302 304 304 302 308 311 311 310 311 314 311 310 310 310 309 310 310 310 311 311 311 312 313 312 312 312 312 312 312 313 313 313 314 316 319 321 323 323 324 326 326 327 329 330
303 302 303 303 310 310 313 311 311 311 317 312 311 311 309 310 310 309 310 311 311 312 312 313 312 313 310 312 312 312 312 311 312 314 316 318 322 323 323 324 324 325 326 328 329
303 304 302 307 312 313 311 311 310 311 322 311 310 310 310 310 310 311 310 310 311 312 312 312 313 313 314 311 311 311 311 311 311 313 315 315 319 321 323 323 325 325 326 327 327
303 305 308 312 313 311 311 311 311 319 318 310 311 311 311 311 310 310 309 310 310 310 312 312 314 314 313 313 311 311 310 311 311 312 315 315 317 320 322 324 324 325 326 326 326
303 306 310 310 313 311 311 312 318 317 311 312 311 311 311 311 309 309 310 310 309 311 312 312 312 314 312 314 314 311 312 311 313 315 314 315 318 319 320 321 322 322 324 324 324
303 307 310 311 311 311 312 316 317 312 313 311 311 311 311 310 310 310 310 310 309 310 313 314 315 313 313 313 314 313 312 312 316 315 315 316 317 319 319 320 322 322 323 323 323
308 312 313 312 311 310 315 318 315 313 311 311 311 311 311 310 310 311 311 310 310 310 311 313 313 311 312 314 313 314 314 313 313 313 317 318 317 319 320 320 321 322 322 322 324
309 312 313 310 310 311 315 314 312 311 311 311 312 311 312 312 311 311 310 310 309 309 310 311 312 311 313 315 312 313 313 317 315 315 313 317 317 318 319 320 321 322 322 323 324
310 316 311 308 309 315 315 311 310 311 311 311 312 312 312 311 311 311 311 310 311 309 310 309 310 311 311 315 315 314 315 314 314 316 315 318 318 318 319 320 322 323 323 323 323
312 316 310 306 314 312 311 309 306 311 311 311 310 311 312 311 311 311 311 310 310 309 309 311 314 311 310 310 312 312 314 316 321 320 315 315 316 317 321 321 321 322 322 322 323
312 312 310 309 317 314 310 308 310 311 312 310 310 311 310 311 313 312 312 310 310 309 312 312 313 316 312 311 315 315 315 315 315 317 318 321 321 319 323 323 322 322 321 321 321
310 314 312 312 311 312 312 311 311 310 311 310 310 310 311 312 311 313 312 312 311 311 311 311 314 313 317 314 314 315 314 312 314 317 316 317 315 318 318 321 320 319 319 320 319
311 312 311 313 313 313 312 311 310 311 311 310 311 310 311 313 312 312 313 312 312 312 312 313 316 313 313 312 312 311 310 310 310 312 312 314 313 315 317 316 319 317 317 317 318
309 309 308 309 310 311 310 312 310 310 310 310 311 310 309 311 311 313 312 313 315 314 313 313 316 314 313 312 311 310 310 310 310 311 311 312 312 312 313 315 315 315 316 316 317
305 306 306 310 310 311 313 311 311 310 309 309 310 311 311 310 311 311 312 313 313 314 315 313 314 315 315 312 314 313 312 316 316 312 313 313 313 313 314 314 315 315 316 317 317
Wind_Speed
17 17 17 17 18 17 17 16 15 14 15 15 16 16 16 17 17 16 9 5 5 10 12 13 13 13 16 20 21 16 16 18 22 20 18 13 16 19 13 12 12 11 10 8 1
17 17 18 18 19 18 17 16 14 13 14 16 16 15 16 16 17 14 4 5 10 10 10 14 15 15 15 17 19 20 17 26 20 18 13 12 17 21 17 14 17 11 7 3 7
18 19 19 19 18 17 17 16 14 14 16 17 15 15 16 12 13 7 7 10 12 12 12 11 16 19 22 20 22 25 27 24 20 17 13 17 18 20 21 18 17 17 15 12 6
18 18 18 19 18 17 15 14 14 15 16 15 12 13 12 9 2 8 6 10 9 9 11 14 13 20 24 27 25 26 31 26 26 26 15 18 17 22 24 21 18 15 13 11 6
19 20 20 20 19 15 13 12 14 15 15 14 13 14 9 8 7 1 8 7 9 9 9 11 15 17 25 25 25 32 30 27 26 24 25 19 24 23 24 22 22 21 16 14 15
20 21 22 21 18 15 14 13 14 16 16 14 13 10 8 8 3 3 6 7 7 10 9 9 12 16 21 25 27 28 28 31 29 28 26 23 27 23 27 23 24 23 21 19 19
21 23 23 23 20 16 14 14 15 17 13 11 8 7 11 7 2 5 6 7 6 7 8 10 10 15 12 16 25 26 29 28 28 30 32 25 26 32 28 26 26 23 21 21 23
23 24 25 23 20 15 14 16 18 11 7 4 5 7 3 3 4 5 7 9 4 7 10 12 13 16 20 21 26 22 21 26 34 30 29 23 34 39 29 27 26 27 23 22 23
24 27 26 23 19 14 13 13 8 3 3 3 5 8 4 5 3 10 10 9 10 11 8 10 15 16 16 17 19 20 25 28 31 31 30 29 36 33 31 24 25 24 25 24 24
26 27 27 24 16 11 11 9 6 1 1 6 9 7 4 6 11 11 7 10 12 12 14 16 12 14 14 13 20 23 26 29 31 29 28 30 36 32 29 27 27 25 25 22 24
29 28 27 24 14 7 14 7 6 7 12 10 8 6 3 9 7 7 6 10 6 11 13 10 14 15 18 19 23 23 27 34 31 25 29 30 32 36 30 26 27 25 22 24 24
31 29 25 21 7 2 9 5 6 7 8 9 8 7 6 4 7 6 2 8 10 13 14 14 15 17 17 21 25 24 26 30 29 31 27 25 31 34 28 29 28 29 26 21 19
32 33 24 9 2 3 5 6 5 10 7 3 4 7 3 5 8 11 7 8 13 15 13 14 16 19 19 19 19 22 24 25 29 26 28 31 27 33 32 28 26 28 30 30 28
33 28 13 5 2 4 2 5 9 7 5 9 7 4 7 6 13 7 6 7 14 17 17 16 15 11 15 22 21 23 22 25 24 23 22 28 23 28 27 28 29 26 27 29 26
32 18 5 3 9 3 6 9 9 5 5 6 5 6 6 10 8 3 6 9 15 15 15 18 19 19 20 20 19 22 20 24 26 24 27 30 22 23 23 28 26 26 26 23 22
32 10 1 1 2 6 7 8 5 7 2 3 1 4 10 10 7 5 9 12 17 17 16 21 18 20 19 18 19 18 21 26 24 21 22 30 27 25 22 20 23 19 19 18 18
29 3 1 4 7 8 9 8 6 5 4 2 6 10 13 12 6 4 11 12 11 11 15 22 17 13 9 18 17 17 20 15 17 17 22 26 26 22 21 28 23 19 22 22 16
18 4 2 3 6 8 10 9 4 6 8 10 10 15 9 7 4 7 12 12 10 5 11 10 16 12 13 13 17 18 18 14 18 17 18 24 25 23 29 32 8 8 12 7 6
5 3 8 0 7 8 9 6 6 10 9 10 13 8 3 5 6 12 9 9 6 10 8 13 12 21 21 12 12 15 19 22 23 21 14 13 25 27 23 32 24 20 8 8 3
11 7 2 7 7 10 8 7 5 3 7 9 12 4 11 14 12 11 9 6 6 5 10 15 19 17 10 19 15 15 18 10 8 18 19 16 21 19 23 13 16 13 8 4 5
7 4 5 8 7 7 4 7 6 4 6 7 11 14 13 13 13 15 14 13 10 10 14 16 18 21 16 13 16 9 15 17 12 14 13 10 12 19 26 25 19 17 10 3 4
5 3 5 8 4 3 5 6 2 5 4 7 7 7 11 12 13 17 15 12 8 13 17 19 13 18 22 23 11 7 13 6 5 12 14 16 16 22 21 6 27 13 8 4 7
6 3 3 6 4 5 7 9 4 7 7 5 7 9 11 13 8 12 16 13 12 12 6 8 7 11 17 6 20 8 18 8 12 17 18 11 10 15 14 19 14 10 4 3 9
5 4 1 1 3 5 8 5 4 3 11 6 8 14 9 12 13 10 17 9 7 13 14 8 15 16 17 24 10 9 16 14 14 10 14 20 20 11 28 18 12 3 5 7 12
3 2 3 4 5 9 9 10 10 5 5 6 7 6 9 8 17 19 14 21 19 13 10 5 11 18 20 22 25 21 16 16 19 19 18 22 18 14 15 25 25 10 10 14 14
5 5 8 10 6 9 4 7 8 8 8 13 12 11 10 14 15 23 21 19 11 13 7 5 10 14 17 20 20 22 20 19 19 22 24 25 24 18 14 19 20 14 15 14 10
5 3 5 8 4 5 7 6 10 13 9 7 9 13 16 16 17 19 21 21 17 12 10 4 8 11 15 14 13 13 11 16 18 17 15 24 21 20 20 16 14 13 13 13 12
Wind_Direction
346 343 340 337 335 332 329 327 326 326 324 325 324 323 319 313 316 288 255 35 350 346 303 274 254 241 230 241 233 238 253 250 251 250 261 274 279 270 253 262 253 248 261 26 301
344 341 339 337 336 334 329 325 325 326 325 321 319 320 320 319 307 265 111 62 349 335 294 247 244 225 231 232 233 230 239 241 259 267 275 255 262 262 253 217 241 206 204 197 172
344 341 338 336 334 331 328 325 323 323 321 319 318 322 316 325 265 90 129 341 333 315 290 272 269 256 234 237 227 233 242 254 249 258 283 262 269 273 265 246 234 221 202 193 150
343 339 335 333 332 331 330 325 320 319 320 329 327 332 322 294 349 98 339 336 330 316 282 266 244 244 242 238 238 244 241 249 256 269 256 257 271 269 273 265 247 233 213 196 188
345 342 339 336 334 330 327 319 314 313 312 318 322 332 315 227 61 19 328 321 314 313 279 272 262 247 246 249 246 241 247 247 249 260 260 259 257 260 259 261 268 262 252 220 246
344 343 340 338 334 328 322 313 307 310 308 307 310 325 268 256 24 314 317 311 293 310 310 278 271 273 279 263 252 256 253 251 250 244 253 248 258 262 255 260 260 258 249 247 242
342 340 337 334 333 328 322 312 306 307 301 295 295 290 265 50 316 313 295 311 311 294 290 301 292 271 273 257 255 266 269 266 258 246 243 246 256 251 249 253 257 257 247 248 246
343 340 335 331 328 328 325 322 313 307 299 285 288 259 295 98 341 309 326 312 285 277 271 280 282 276 268 268 276 280 263 249 245 247 244 237 247 251 252 247 244 253 249 245 239
339 337 334 330 327 325 324 333 328 321 296 239 232 235 163 191 333 335 320 321 307 292 277 269 273 267 266 249 256 247 251 248 253 241 241 236 245 251 254 246 255 241 246 244 243
339 334 331 328 324 319 320 320 291 273 302 236 262 248 211 353 337 316 325 312 308 305 284 237 258 250 247 237 248 255 245 247 255 259 235 238 239 244 251 255 245 254 249 245 239
340 334 329 324 321 317 319 256 209 201 223 300 318 292 283 341 317 313 347 321 285 285 280 285 269 257 266 266 262 271 271 273 272 265 244 256 241 244 238 237 255 257 240 229 241
342 336 329 323 319 255 291 355 37 344 299 261 249 256 260 309 298 321 318 297 314 300 299 273 255 265 272 274 278 276 275 271 271 266 274 271 254 254 245 234 233 247 253 244 245
347 342 334 339 112 248 333 36 338 332 259 92 191 227 231 254 288 296 291 286 292 297 289 291 298 300 284 273 264 267 269 274 278 280 259 260 257 260 258 249 231 238 244 247 248
352 345 356 98 274 349 137 341 326 323 266 135 193 166 225 287 261 277 310 293 289 292 296 289 288 268 275 269 258 265 269 277 272 270 259 248 256 251 245 250 244 238 241 245 241
350 344 23 345 328 342 348 322 320 243 246 123 145 56 260 281 314 195 204 260 289 304 296 288 291 285 281 263 262 272 277 275 263 261 259 256 256 248 235 244 238 239 246 248 251
346 338 344 278 248 356 325 322 248 231 80 165 272 266 299 300 268 275 267 264 250 265 287 284 310 267 276 275 275 287 280 277 255 253 243 244 243 244 242 245 231 233 231 234 244
342 314 240 331 353 333 322 257 245 286 119 76 336 317 307 284 287 269 305 296 305 324 312 318 301 299 338 289 263 254 269 271 257 246 245 239 245 242 252 255 268 279 244 234 233
339 175 254 312 328 326 287 257 299 69 12 357 315 297 271 0 329 298 293 294 316 277 305 303 313 339 354 303 280 277 260 265 262 263 252 242 244 245 235 252 223 262 264 149 195
355 235 235 95 316 309 274 259 23 12 359 331 305 293 220 227 279 294 299 325 330 337 315 308 309 312 292 272 271 282 261 251 266 259 276 285 286 232 240 219 240 227 227 207 196
330 256 102 328 307 281 264 287 326 24 324 314 302 320 319 326 313 318 322 334 288 291 294 293 297 301 326 332 261 240 260 289 259 270 261 269 257 256 215 220 214 196 185 150 244
286 251 63 323 284 245 286 349 332 24 326 325 324 304 310 315 313 312 303 296 355 334 314 300 283 289 282 222 261 242 244 245 259 249 272 295 282 226 209 196 221 165 136 142 308
301 267 30 324 256 273 295 8 11 279 305 298 292 304 294 322 316 306 297 311 355 323 307 316 305 280 279 283 252 288 270 272 224 270 278 250 265 309 275 194 195 126 131 38 345
317 306 99 288 314 353 340 300 238 294 299 293 271 285 300 300 300 293 312 323 318 305 326 344 292 309 283 267 14 360 325 234 250 279 254 290 285 285 102 102 98 105 88 319 338
306 322 107 110 142 311 338 291 292 320 292 293 290 285 299 284 282 277 290 305 312 293 292 295 267 258 273 293 155 237 240 258 264 270 257 258 269 269 293 131 136 137 9 300 306
348 39 23 304 320 327 299 288 283 292 265 296 283 279 306 306 310 287 306 318 310 306 284 207 268 273 273 279 283 279 280 277 270 269 273 275 275 263 274 309 311 5 315 293 299
335 345 345 296 277 289 286 287 302 308 298 294 273 289 294 285 286 289 298 294 299 299 295 275 267 288 287 285 285 287 278 259 257 268 266 274 275 276 267 256 283 304 288 289 303
1 337 327 286 278 285 302 321 317 313 302 287 294 290 286 285 286 282 283 284 267 246 274 258 278 290 280 298 320 279 306 336 333 271 302 290 290 297 287 267 272 273 286 288 286